Бохтариён

Таджикистан     37°52′52″N   68°43′50″E
темп.,
°C
ветер,
м/с
пор.,
м/с
влажн.,
%
обл.,
%
осадки,
мм/ч
давл.,
гПа
погр.,
м
12 апреля, пн
пн1223:00+16ссв34424 0.0 101645
02:00+15с33460 0.0 101739
05:00+14ссв33462 0.0 101734
08:00+18ссв23442 0.0 1018159
11:00+23вюв11320 0.0 1018752
14:00+26ююв22242 0.0 10162641
17:00+26юв122410 0.0 10151473
20:00+19с2233100 0.0 101512
13 апреля, вт
вт1323:00+19ссз2336100 0.0 101631
02:00+19с3638100 0.0 1015106
05:00+17ссв4648100 0.0 1017152
08:00+16ссв356083 0.0 1020332
11:00+21ссв4445100 0.0 1020858
14:00+23ююв433818 0.0 10191821
17:00+23ююв33397 0.0 10181397
20:00+18с11536 0.0 101912
14 апреля, ср
ср1423:00+15с366680 0.0 101993
02:00+14с33601 0.0 101843
05:00+14с335864 0.0 101738
08:00+18с345299 0.0 1017193
11:00+23св223686 0.0 1015833
14:00+26сз1128100 0.0 10131617
17:00+26ссв11280 0.0 10111165
20:00+20с22390 0.0 101111
15 апреля, чт
чт1523:00+18ссв34436 0.0 101247
02:00+16с344140 0.0 101047
05:00+15с3435100 0.0 100946
08:00+19ссв233696 0.0 1009128
11:00+24ю2124100 0.0 1008530
14:00+26ююв2323100 0.0 1007829
17:00+26юв2328100 0.0 1006521
20:00+19юв2438100 0.0 1009156
16 апреля, пт
пт1623:00+14всв2377100 1.2 1016225
02:00+12с2388100 4.6 1017262
05:00+12ссв3488100 7.7 1018287
08:00+13ссв2381100 0.1 1019255
11:00+18с335788 0.1 1017783
14:00+21ссв014564 0.0 10141389
17:00+22ю11440 0.0 10131227
20:00+17ссз11560 0.0 101411